,,PA_Meas_PMT16A,,PR_Meas_QMR101_102,,RH_Meas_QMH101,,SR_Meas_QMS101,,TA_Meas_QMH101,,GenWind,,GenWind,
time,status,PA,status,PR,status,RH,status,SR,status,TA,status,DirAvg,status,SpdAvg,
2014-08-24, 00:00:04,VALID,918.54,VALID,0,VALID,96.2914,VALID,0,VALID,20.3854,VALID,12,VALID,0.56875,
2014-08-24, 00:01:04,VALID,918.546,VALID,0,VALID,96.3066,VALID,0,VALID,20.4244,VALID,12,VALID,0.614453,
2014-08-24, 00:02:04,VALID,918.536,VALID,0,VALID,96.3295,VALID,0,VALID,20.4439,VALID,12,VALID,0.258594,
2014-08-24, 00:03:04,VALID,918.537,VALID,0,VALID,96.3829,VALID,0,VALID,20.4439,VALID,12,VALID,0.450781,
2014-08-24, 00:04:04,VALID,918.533,VALID,0,VALID,96.3752,VALID,0,VALID,20.4618,VALID,12,VALID,0.386328,
2014-08-24, 00:05:04,VALID,918.523,VALID,0,VALID,96.3752,VALID,0,VALID,20.5024,VALID,12,VALID,0.201172,
2014-08-24, 00:06:04,VALID,918.476,VALID,0,VALID,96.3524,VALID,0,VALID,20.4829,VALID,57,VALID,0.643359,
2014-08-24, 00:07:04,VALID,918.453,VALID,0,VALID,96.3219,VALID,0,VALID,20.4829,VALID,85,VALID,0.344141,
2014-08-24, 00:08:04,VALID,918.428,VALID,0,VALID,96.3219,VALID,0,VALID,20.5024,VALID,85,VALID,0.377734,
2014-08-24, 00:09:04,VALID,918.407,VALID,0,VALID,96.3066,VALID,0,VALID,20.5024,VALID,85,VALID,0.596094,
2014-08-24, 00:10:04,VALID,918.405,VALID,0,VALID,96.2914,VALID,0,VALID,20.4829,VALID,76,VALID,0.714063,
2014-08-24, 00:11:04,VALID,918.378,VALID,0,VALID,96.238,VALID,0,VALID,20.4829,VALID,76,VALID,0.722266,
2014-08-24, 00:12:04,VALID,918.384,VALID,0,VALID,96.2075,VALID,0,VALID,20.4634,VALID,76,VALID,0.586328,
2014-08-24, 00:13:04,VALID,918.385,VALID,0,VALID,96.1694,VALID,0,VALID,20.4439,VALID,76,VALID,0.616016,
2014-08-24, 00:14:04,VALID,918.37,VALID,0,VALID,96.1694,VALID,0,VALID,20.4454,VALID,76,VALID,0.541016,
2014-08-24, 00:15:04,VALID,918.346,VALID,0,VALID,96.177,VALID,0,VALID,20.3854,VALID,76,VALID,0.65,
2014-08-24, 00:16:04,VALID,918.357,VALID,0,VALID,96.1694,VALID,0,VALID,20.3854,VALID,76,VALID,0.551172,
2014-08-24, 00:17:04,VALID,918.331,VALID,0,VALID,96.1846,VALID,0,VALID,20.3659,VALID,76,VALID,0.618359,
2014-08-24, 00:18:04,VALID,918.304,VALID,0,VALID,96.2151,VALID,0,VALID,20.3464,VALID,76,VALID,0.599609,
2014-08-24, 00:19:04,VALID,918.331,VALID,0,VALID,96.2304,VALID,0,VALID,20.3464,VALID,76,VALID,0.564844,
2014-08-24, 00:20:04,VALID,918.301,VALID,0,VALID,96.2304,VALID,0,VALID,20.3464,VALID,76,VALID,0.398047,
2014-08-24, 00:21:04,VALID,918.31,VALID,0,VALID,96.2609,VALID,0,VALID,20.3269,VALID,76,VALID,0.285156,
2014-08-24, 00:22:04,VALID,918.31,VALID,0,VALID,96.2533,VALID,0,VALID,20.3269,VALID,76,VALID,0.177734,
2014-08-24, 00:23:04,VALID,918.315,VALID,0,VALID,96.2837,VALID,0,VALID,20.3074,VALID,76,VALID,0.322266,
2014-08-24, 00:24:04,VALID,918.299,VALID,0,VALID,96.2685,VALID,0,VALID,20.3074,VALID,76,VALID,0.435156,
2014-08-24, 00:25:04,VALID,918.305,VALID,0,VALID,96.2837,VALID,0,VALID,20.2879,VALID,76,VALID,0.832031,
2014-08-24, 00:26:04,VALID,918.322,VALID,0,VALID,96.2914,VALID,0,VALID,20.2489,VALID,76,VALID,0.948047,
2014-08-24, 00:27:04,VALID,918.301,VALID,0,VALID,96.2761,VALID,0,VALID,20.2293,VALID,76,VALID,0.874609,
2014-08-24, 00:28:04,VALID,918.314,VALID,0,VALID,96.2837,VALID,0,VALID,20.2098,VALID,76,VALID,0.723437,
2014-08-24, 00:29:04,VALID,918.242,VALID,0,VALID,96.3066,VALID,0,VALID,20.1903,VALID,76,VALID,0.781641,
2014-08-24, 00:30:04,VALID,918.25,VALID,0,VALID,96.3371,VALID,0,VALID,20.1903,VALID,49,VALID,0.769141,
2014-08-24, 00:31:04,VALID,918.205,VALID,0,VALID,96.3447,VALID,0,VALID,20.1708,VALID,42,VALID,0.508984,
2014-08-24, 00:32:04,VALID,918.202,VALID,0,VALID,96.3905,VALID,0,VALID,20.1708,VALID,42,VALID,0.538672,
2014-08-24, 00:33:04,VALID,918.175,VALID,0,VALID,96.4057,VALID,0,VALID,20.1919,VALID,42,VALID,0.235156,
2014-08-24, 00:34:04,VALID,918.139,VALID,0,VALID,96.4362,VALID,0,VALID,20.1903,VALID,42,VALID,0,
2014-08-24, 00:35:04,VALID,918.086,VALID,0,VALID,96.4591,VALID,0,VALID,20.2293,VALID,42,VALID,0,
2014-08-24, 00:36:04,VALID,918.105,VALID,0,VALID,96.4591,VALID,0,VALID,20.1903,VALID,42,VALID,0,
2014-08-24, 00:37:04,VALID,918.067,VALID,0,VALID,96.4438,VALID,0,VALID,20.1708,0,0,0,0,
2014-08-24, 07:16:04,VALID,917.238,VALID,0,VALID,92.3119,VALID,150.31,VALID,20.4829,VALID,144,VALID,0.658203,
2014-08-24, 07:17:04,VALID,917.231,VALID,0,VALID,92.3653,VALID,157.401,VALID,20.5235,VALID,144,VALID,1.18281,
2014-08-24, 07:18:04,VALID,917.206,VALID,0,VALID,92.3272,VALID,159.335,VALID,20.5804,VALID,188,VALID,0.621484,
2014-08-24, 07:19:04,VALID,917.203,VALID,0,VALID,91.8469,VALID,149.773,VALID,20.6194,VALID,135,VALID,1.04141,
2014-08-24, 07:21:04,VALID,917.228,VALID,0,VALID,91.3209,VALID,129.144,VALID,20.717,VALID,137,VALID,0.682031,
2014-08-24, 07:22:04,VALID,917.215,VALID,0,VALID,91.2294,VALID,127.21,VALID,20.7365,VALID,136,VALID,0.806641,
2014-08-24, 07:23:04,VALID,917.198,VALID,0,VALID,91.016,VALID,170.617,VALID,20.7365,VALID,137,VALID,1.22461,
2014-08-24, 07:24:04,VALID,917.222,VALID,0,VALID,90.8559,VALID,183.832,VALID,20.7349,VALID,152,VALID,1.03672,
2014-08-24, 07:25:04,VALID,917.223,VALID,0,VALID,90.711,VALID,137.31,VALID,20.834,VALID,143,VALID,1.52578,
2014-08-24, 07:26:04,VALID,917.236,VALID,0,VALID,90.6119,VALID,181.79,VALID,20.912,VALID,147,VALID,1.1918,
2014-08-24, 07:27:04,VALID,917.232,VALID,0,VALID,90.3908,VALID,185.873,VALID,20.9706,VALID,162,VALID,0.914844,
2014-08-24, 07:28:04,VALID,917.247,VALID,0,VALID,90.246,VALID,190.815,VALID,21.0291,VALID,150,VALID,1.21055,
2014-08-24, 07:29:04,VALID,917.281,VALID,0,VALID,90.0097,VALID,195.435,VALID,21.0876,VALID,137,VALID,1.21523,
2014-08-24, 07:30:04,VALID,917.276,VALID,0,VALID,90.185,VALID,188.882,VALID,21.1657,VALID,146,VALID,1.08438,
2014-08-24, 07:31:04,VALID,917.252,VALID,0,VALID,89.5828,VALID,191.997,VALID,21.2047,VALID,141,VALID,1.28398,
2014-08-24, 07:32:04,VALID,917.314,VALID,0,VALID,89.6133,VALID,203.708,VALID,21.2827,VALID,145,VALID,0.875,
2014-08-24, 07:33:04,VALID,917.31,VALID,0,VALID,89.3388,VALID,200.485,VALID,21.3412,VALID,149,VALID,0.971875,
2014-08-24, 07:34:04,VALID,917.352,VALID,0,VALID,88.6832,VALID,207.254,VALID,21.3396,VALID,164,VALID,1.06133,
2014-08-24, 07:35:04,VALID,917.319,VALID,0,VALID,88.5155,VALID,210.692,VALID,21.3981,VALID,164,VALID,1.09336,
2014-08-24, 07:36:04,VALID,917.367,VALID,0,VALID,88.02,VALID,219.61,VALID,21.3981,VALID,148,VALID,1.49648,
2014-08-24, 07:37:04,VALID,917.39,VALID,0,VALID,87.9209,VALID,227.023,VALID,21.3786,VALID,160,VALID,1.80625,
2014-08-24, 07:38:04,VALID,917.359,VALID,0,VALID,87.8141,VALID,200.163,VALID,21.3981,VALID,158,VALID,1.76211,
2014-08-24, 07:39:04,VALID,917.37,VALID,0,VALID,87.9818,VALID,134.301,VALID,21.4372,VALID,150,VALID,1.40859,
2014-08-24, 07:40:04,VALID,917.379,VALID,0,VALID,87.6007,VALID,213.808,VALID,21.4372,VALID,158,VALID,1.74258,
2014-08-24, 07:41:04,VALID,917.404,VALID,0,VALID,87.8218,VALID,244.321,VALID,21.4567,VALID,155,VALID,1.28242,
2014-08-24, 07:42:04,VALID,917.393,VALID,0,VALID,87.7074,VALID,244.644,VALID,21.4957,VALID,154,VALID,1.38164,
2014-08-24, 07:43:04,VALID,917.398,VALID,0,VALID,87.6922,VALID,234.974,VALID,21.5932,VALID,147,VALID,1.52422,
2014-08-24, 07:44:04,VALID,917.401,VALID,0,VALID,86.7926,VALID,234.437,VALID,21.6323,VALID,136,VALID,1.62773,
2014-08-24, 07:45:04,VALID,917.4,VALID,0,VALID,86.9527,VALID,230.354,VALID,21.7103,VALID,150,VALID,0.978125,
2014-08-24, 07:46:04,VALID,917.383,VALID,0,VALID,85.7939,VALID,236.478,VALID,21.7477,VALID,146,VALID,2.37578,
2014-08-24, 07:47:04,VALID,917.415,VALID,0,VALID,85.8549,VALID,247.544,VALID,21.8859,VALID,125,VALID,1.15703,
2014-08-24, 07:48:04,VALID,917.396,VALID,0,VALID,86.419,VALID,247.222,VALID,21.9818,VALID,142,VALID,1.07578,
2014-08-24, 07:49:04,VALID,917.426,VALID,0,VALID,86.5791,VALID,242.065,VALID,22.1379,VALID,120,VALID,0.878516,
2014-08-24, 07:50:04,VALID,917.418,VALID,0,VALID,85.3823,VALID,228.742,VALID,22.2159,VALID,127,VALID,0.895703,
2014-08-24, 07:51:04,VALID,917.466,VALID,0,VALID,84.8562,VALID,209.08,VALID,22.333,VALID,168,VALID,0.326953,
2014-08-24, 07:52:04,VALID,917.478,VALID,0,VALID,83.5221,VALID,204.461,VALID,22.4713,VALID,184,VALID,0.911328,
2014-08-24, 07:53:04,VALID,917.496,VALID,0,VALID,82.8742,VALID,215.742,VALID,22.473,VALID,170,VALID,1.03672,
2014-08-24, 07:54:04,VALID,917.489,VALID,0,VALID,83.545,VALID,237.875,VALID,22.3933,VALID,173,VALID,0.846484,
2014-08-24, 07:55:04,VALID,917.564,VALID,0,VALID,83.4459,VALID,248.404,VALID,22.3933,VALID,173,VALID,0.595703,
2014-08-24, 07:56:04,VALID,917.556,VALID,0,VALID,83.1562,VALID,256.14,VALID,22.4128,VALID,170,VALID,0.651172,
2014-08-24, 07:57:04,VALID,917.602,VALID,0,VALID,83.2325,VALID,266.561,VALID,22.5299,VALID,170,VALID,0.719922,
2014-08-24, 07:58:04,VALID,917.63,VALID,0,VALID,82.5082,VALID,267.743,VALID,22.6257,VALID,171,VALID,0.741797,
2014-08-24, 07:59:04,VALID,917.641,VALID,0,VALID,81.8374,VALID,272.793,VALID,22.7641,VALID,177,VALID,0.798437,
2014-08-24, 08:00:04,VALID,917.671,VALID,0,VALID,81.0979,VALID,280.314,VALID,22.7836,VALID,159,VALID,0.901563,
2014-08-24, 08:01:04,VALID,917.69,VALID,0,VALID,80.9302,VALID,280.314,VALID,22.7818,VALID,184,VALID,1.33008,
2014-08-24, 08:02:04,VALID,917.687,VALID,0,VALID,80.7548,VALID,275.694,VALID,22.7428,VALID,195,VALID,1.37461,
2014-08-24, 08:03:04,VALID,917.678,VALID,0,VALID,81.4333,VALID,285.041,VALID,22.7233,VALID,159,VALID,0.814453,
2014-08-24, 08:04:04,VALID,917.708,VALID,0,VALID,81.0369,VALID,290.843,VALID,22.7428,VALID,171,VALID,1.34453,
2014-08-24, 08:05:04,VALID,917.732,VALID,0,VALID,81.5019,VALID,284.827,VALID,22.7623,VALID,175,VALID,1.25273,
2014-08-24, 08:06:04,VALID,917.747,VALID,0,VALID,81.6773,VALID,283,VALID,22.8014,VALID,170,VALID,1.41914,
2014-08-24, 08:07:04,VALID,917.745,VALID,0,VALID,80.5719,VALID,288.802,VALID,22.7818,VALID,165,VALID,1.38867,
2014-08-24, 08:08:04,VALID,917.727,VALID,0,VALID,81.7916,VALID,288.157,VALID,22.8599,VALID,181,VALID,0.779688,
2014-08-24, 08:09:04,VALID,917.735,VALID,0,VALID,80.6176,VALID,289.876,VALID,22.9965,VALID,184,VALID,0.766406,
2014-08-24, 08:10:04,VALID,917.767,VALID,0,VALID,80.0154,VALID,294.066,VALID,23.1314,VALID,195,VALID,0.966406,
2014-08-24, 08:11:04,VALID,917.758,VALID,0,VALID,79.5199,VALID,306.53,VALID,23.2698,VALID,170,VALID,0.682422,
2014-08-24, 08:12:04,VALID,917.79,VALID,0,VALID,79.3521,VALID,317.166,VALID,23.4259,VALID,159,VALID,0.862891,
2014-08-24, 08:13:04,VALID,917.798,VALID,0,VALID,77.3624,VALID,309.323,VALID,23.504,VALID,192,VALID,1.26367,
2014-08-24, 08:14:04,VALID,917.782,VALID,0,VALID,77.492,VALID,300.62,VALID,23.4827,VALID,168,VALID,0.633203,
2014-08-24, 08:15:04,VALID,917.77,VALID,0,VALID,77.8198,VALID,322.431,VALID,23.5412,VALID,151,VALID,0.867188,
2014-08-24, 08:16:04,VALID,917.749,VALID,0,VALID,76.9584,VALID,319.637,VALID,23.4845,VALID,175,VALID,0.898438,
2014-08-24, 08:17:04,VALID,917.732,VALID,0,VALID,78.3001,VALID,325.332,VALID,23.3851,VALID,169,VALID,0.925781,
2014-08-24, 08:18:04,VALID,917.739,VALID,0,VALID,77.9647,VALID,341.341,VALID,23.4241,VALID,159,VALID,0.724219,
2014-08-24, 08:19:04,VALID,917.754,VALID,0,VALID,78.3992,VALID,345.101,VALID,23.4667,VALID,175,VALID,0.723828,
2014-08-24, 08:20:04,VALID,917.766,VALID,0,VALID,77.9647,VALID,348.539,VALID,23.5626,VALID,190,VALID,0.921484,
2014-08-24, 08:21:04,VALID,917.766,VALID,0,VALID,76.7068,VALID,355.953,VALID,23.6779,VALID,183,VALID,0.600781,
2014-08-24, 08:22:04,VALID,917.767,VALID,0,VALID,75.4413,VALID,362.721,VALID,23.7364,VALID,174,VALID,0.533203,
2014-08-24, 08:23:04,VALID,917.769,VALID,0,VALID,77.0727,VALID,372.391,VALID,23.8145,VALID,162,VALID,0.732031,
2014-08-24, 08:24:04,VALID,917.757,VALID,0,VALID,75.7005,VALID,377.656,VALID,23.8731,VALID,158,VALID,1.02344,
2014-08-24, 08:25:04,VALID,917.747,VALID,0,VALID,77.1947,VALID,382.705,VALID,23.8731,VALID,144,VALID,0.639063,
2014-08-24, 08:26:04,VALID,917.742,VALID,0,VALID,77.0956,VALID,386.143,VALID,23.8926,VALID,144,VALID,1.31992,
2014-08-24, 08:27:04,VALID,917.726,VALID,0,VALID,76.1579,VALID,387.863,VALID,23.9335,VALID,166,VALID,0.966406,
2014-08-24, 08:28:04,VALID,917.701,VALID,0,VALID,75.6853,VALID,391.838,VALID,23.9512,VALID,158,VALID,1.0832,
2014-08-24, 08:29:04,VALID,917.671,VALID,0,VALID,75.7158,VALID,393.772,VALID,23.9139,VALID,119,VALID,1.30156,
2014-08-24, 08:30:04,VALID,917.682,VALID,0,VALID,75.3117,VALID,400.326,VALID,23.8749,VALID,141,VALID,1.49609,
2014-08-24, 08:31:04,VALID,917.688,VALID,0,VALID,76.3028,VALID,405.913,VALID,23.8536,VALID,140,VALID,0.867188,
2014-08-24, 08:32:04,VALID,917.685,VALID,0,VALID,75.8225,VALID,403.549,VALID,24.0683,VALID,108,VALID,0.403906,
2014-08-24, 08:33:04,VALID,917.705,VALID,0,VALID,72.8417,VALID,406.88,VALID,24.0488,VALID,152,VALID,1.41953,
2014-08-24, 08:34:04,VALID,917.715,VALID,0,VALID,72.9561,VALID,413.434,VALID,24.0878,VALID,164,VALID,0.792578,
2014-08-24, 08:35:04,VALID,917.693,VALID,0,VALID,73.6879,VALID,422.459,VALID,24.244,VALID,163,VALID,0.421484,
2014-08-24, 08:36:04,VALID,917.725,VALID,0,VALID,73.0399,VALID,425.897,VALID,24.4978,VALID,141,VALID,0.701563,
2014-08-24, 08:37:04,VALID,917.719,VALID,0,VALID,71.0884,VALID,429.12,VALID,24.7126,VALID,110,VALID,1.11953,
2014-08-24, 08:38:04,VALID,917.739,VALID,0,VALID,73.6651,VALID,432.773,VALID,24.7321,VALID,119,VALID,1.08711,
2014-08-24, 08:39:04,VALID,917.782,VALID,0,VALID,74.0462,VALID,434.385,VALID,24.7126,VALID,142,VALID,1.30078,
2014-08-24, 08:40:04,VALID,917.747,VALID,0,VALID,72.979,VALID,435.566,VALID,24.5368,VALID,126,VALID,1.20469,
2014-08-24, 08:41:04,VALID,917.747,VALID,0,VALID,74.7019,VALID,436.211,VALID,24.4569,VALID,129,VALID,0.746875,
2014-08-24, 08:42:04,VALID,917.768,VALID,0,VALID,73.1924,VALID,438.145,VALID,24.5954,VALID,156,VALID,0.702734,
2014-08-24, 08:43:04,VALID,917.814,VALID,0,VALID,72.8951,VALID,442.228,VALID,24.5545,VALID,148,VALID,1.175,
2014-08-24, 08:44:04,VALID,917.799,VALID,0,VALID,73.0095,VALID,447.707,VALID,24.4374,VALID,112,VALID,1.21914,
2014-08-24, 08:45:04,VALID,917.82,VALID,0,VALID,73.261,VALID,448.889,VALID,24.4978,VALID,111,VALID,1.32266,
2014-08-24, 08:46:04,VALID,917.835,VALID,0,VALID,71.0884,VALID,454.154,VALID,24.3983,VALID,120,VALID,1.04688,
2014-08-24, 08:47:04,VALID,917.847,VALID,0,VALID,73.261,VALID,457.699,VALID,24.416,VALID,125,VALID,1.70195,
2014-08-24, 08:48:04,VALID,917.861,VALID,0,VALID,69.739,VALID,461.245,VALID,24.3965,VALID,123,VALID,1.1543,
2014-08-24, 08:49:04,VALID,917.901,VALID,0,VALID,70.3794,VALID,471.237,VALID,24.3788,VALID,117,VALID,1.72383,
2014-08-24, 08:50:04,VALID,917.888,VALID,0,VALID,73.4516,VALID,478.435,VALID,24.3593,VALID,110,VALID,2.18164,
2014-08-24, 08:51:04,VALID,917.952,VALID,0,VALID,72.7579,VALID,478.65,VALID,24.3026,VALID,101,VALID,1.90703,
2014-08-24, 08:52:04,VALID,917.968,VALID,0,VALID,74.1758,VALID,478.006,VALID,24.2635,VALID,119,VALID,1.75703,
2014-08-24, 08:53:04,VALID,917.925,VALID,0,VALID,71.9346,VALID,348.324,VALID,24.3221,VALID,59,VALID,1.85391,
2014-08-24, 08:54:04,VALID,917.964,VALID,0,VALID,73.6803,VALID,501.75,VALID,24.283,VALID,68,VALID,0.854688,
2014-08-24, 08:55:04,VALID,917.982,VALID,0,VALID,72.4453,VALID,505.511,VALID,24.2617,VALID,132,VALID,1.2293,
2014-08-24, 08:56:04,VALID,917.966,VALID,0,VALID,73.1848,VALID,351.225,VALID,24.3593,VALID,186,VALID,0.682813,
2014-08-24, 08:57:04,VALID,917.979,VALID,0,VALID,72.2166,VALID,454.046,VALID,24.4002,VALID,130,VALID,1.68203,
2014-08-24, 08:58:04,VALID,918.006,VALID,0,VALID,74.1225,VALID,356.812,VALID,24.3221,VALID,118,VALID,1.05273,
2014-08-24, 08:59:04,VALID,918.075,VALID,0,VALID,73.7261,VALID,311.042,VALID,24.3221,VALID,113,VALID,2.02539,
2014-08-24, 09:00:04,VALID,918.061,VALID,0,VALID,71.6144,VALID,507.659,VALID,24.2635,VALID,108,VALID,1.03867,
2014-08-24, 09:01:04,VALID,918.037,VALID,0,VALID,73.7337,VALID,493.585,VALID,24.3221,VALID,123,VALID,0.726953,
2014-08-24, 09:02:04,VALID,918.034,VALID,0,VALID,73.1314,VALID,480.369,VALID,24.5173,VALID,141,VALID,0.286328,
2014-08-24, 09:03:04,VALID,918.068,VALID,0,VALID,71.561,VALID,155.575,VALID,24.8102,VALID,151,VALID,0.465234,
2014-08-24, 09:04:04,VALID,917.999,VALID,0,VALID,71.4085,VALID,162.129,VALID,24.984,VALID,160,VALID,0.558203,
2014-08-24, 09:05:04,VALID,918.055,VALID,0,VALID,71.4162,VALID,83.5892,VALID,25.1031,VALID,140,VALID,0.529688,
2014-08-24, 09:06:04,VALID,918.058,VALID,0,VALID,70.1735,VALID,81.5478,VALID,25.1988,VALID,122,VALID,1.06641,
2014-08-24, 09:07:04,VALID,918.056,VALID,0,VALID,70.6081,VALID,107.763,VALID,25.0426,VALID,82,VALID,1.59219,
2014-08-24, 09:08:04,VALID,918.079,VALID,0,VALID,70.2269,VALID,328.77,VALID,24.6912,VALID,107,VALID,0.911719,
2014-08-24, 09:09:04,VALID,918.065,VALID,0,VALID,71.9346,VALID,579.108,VALID,24.5155,VALID,110,VALID,1.10586,
2014-08-24, 09:10:04,VALID,918.086,VALID,0,VALID,71.2027,VALID,576.959,VALID,24.5954,VALID,39,VALID,2.09063,
2014-08-24, 09:11:04,VALID,918.099,VALID,0,VALID,70.6843,VALID,481.766,VALID,24.6521,VALID,12,VALID,1.74453,
2014-08-24, 09:12:04,VALID,918.101,VALID,0,VALID,68.7632,VALID,555.256,VALID,24.6716,VALID,71,VALID,1.36758,
2014-08-24, 09:13:04,VALID,918.102,VALID,0,VALID,69.2587,VALID,548.272,VALID,24.6326,VALID,49,VALID,1.66523,
2014-08-24, 09:14:04,VALID,918.104,VALID,0,VALID,69.7543,VALID,538.065,VALID,24.6326,VALID,58,VALID,1.32344,
2014-08-24, 09:15:04,VALID,918.116,VALID,0,VALID,70.1735,VALID,541.826,VALID,24.7107,VALID,48,VALID,0.495703,
2014-08-24, 09:16:04,VALID,918.135,VALID,0,VALID,69.9677,VALID,557.62,VALID,24.9274,VALID,15,VALID,1.67109,
2014-08-24, 09:17:04,VALID,918.146,VALID,0,VALID,68.6336,VALID,557.727,VALID,25.1207,VALID,346,VALID,0.298828,
2014-08-24, 09:18:04,VALID,918.205,VALID,0,VALID,70.1507,VALID,566,VALID,25.355,VALID,52,VALID,1.33164,
2014-08-24, 09:19:04,VALID,918.201,VALID,0,VALID,68.5345,VALID,565.355,VALID,25.3941,VALID,53,VALID,1.90039,
2014-08-24, 09:20:04,VALID,918.18,VALID,0,VALID,68.2677,VALID,564.603,VALID,25.2574,VALID,65,VALID,2.37109,
2014-08-24, 09:21:04,VALID,918.215,VALID,0,VALID,67.7036,VALID,576.744,VALID,25.1422,VALID,45,VALID,0.990234,
2014-08-24, 09:22:04,VALID,918.219,VALID,0,VALID,67.0479,VALID,591.034,VALID,25.1207,VALID,55,VALID,0.30625,
2014-08-24, 09:23:04,VALID,918.205,VALID,0,VALID,67.2462,VALID,584.802,VALID,25.316,VALID,55,VALID,0.705859,
2014-08-24, 09:24:04,VALID,918.226,VALID,0,VALID,67.6959,VALID,569.116,VALID,25.5718,VALID,73,VALID,0.873047,
2014-08-24, 09:25:04,VALID,918.236,VALID,0,VALID,67.2614,VALID,563.744,VALID,25.8042,VALID,107,VALID,0.344531,
2014-08-24, 09:26:04,VALID,918.29,VALID,0,VALID,62.4739,VALID,556.33,VALID,25.9409,VALID,125,VALID,1.08633,
2014-08-24, 09:27:04,VALID,918.252,VALID,0,VALID,64.7914,VALID,534.735,VALID,25.9604,VALID,45,VALID,2.39102,
2014-08-24, 09:28:04,VALID,918.296,VALID,0,VALID,63.8461,VALID,528.503,VALID,25.8237,VALID,37,VALID,2.28008,
2014-08-24, 09:29:04,VALID,918.273,VALID,0,VALID,65.8282,VALID,111.524,VALID,25.6675,VALID,19,VALID,1.23711,
2014-08-24, 09:30:04,VALID,918.292,VALID,0,VALID,66.4152,VALID,491.221,VALID,25.607,VALID,100,VALID,1.83203,
2014-08-24, 09:31:04,VALID,918.293,VALID,0,VALID,65.5919,VALID,603.604,VALID,25.355,VALID,54,VALID,2.48398,
2014-08-24, 09:32:04,VALID,918.286,VALID,0,VALID,67.0937,VALID,611.77,VALID,25.2965,VALID,41,VALID,2.93398,
2014-08-24, 09:33:04,VALID,918.314,VALID,0,VALID,67.3071,VALID,343.597,VALID,25.2965,VALID,40,VALID,2.13047,
2014-08-24, 09:34:04,VALID,918.339,VALID,0,VALID,67.9475,VALID,635.407,VALID,25.3141,VALID,42,VALID,1.20586,
2014-08-24, 09:35:04,VALID,918.318,VALID,0,VALID,67.0174,VALID,672.259,VALID,25.355,VALID,39,VALID,2.58945,
2014-08-24, 09:36:04,VALID,918.306,VALID,0,VALID,65.9578,VALID,681.499,VALID,25.316,VALID,50,VALID,2.88828,
2014-08-24, 09:37:04,VALID,918.349,VALID,0,VALID,66.6591,VALID,679.135,VALID,25.2379,VALID,48,VALID,1.70508,
2014-08-24, 09:38:04,VALID,918.333,VALID,0,VALID,65.9273,VALID,661.3,VALID,25.3746,VALID,34,VALID,1.68203,
2014-08-24, 09:39:04,VALID,918.325,VALID,0,VALID,68.2906,VALID,588.348,VALID,25.4722,VALID,66,VALID,2.10078,
2014-08-24, 09:40:04,VALID,918.312,VALID,0,VALID,63.6479,VALID,599.522,VALID,25.3726,VALID,113,VALID,1.85273,
2014-08-24, 09:41:04,VALID,918.331,VALID,0,VALID,66.1789,VALID,641.746,VALID,25.316,VALID,110,VALID,1.6832,
2014-08-24, 09:42:04,VALID,918.323,VALID,0,VALID,66.1408,VALID,642.498,VALID,25.2769,VALID,97,VALID,1.44648,
2014-08-24, 09:43:04,VALID,918.334,VALID,0,VALID,67.4139,VALID,641.424,VALID,25.1969,VALID,106,VALID,1.08164,
2014-08-24, 09:44:04,VALID,918.301,VALID,0,VALID,65.9426,VALID,662.267,VALID,25.3141,VALID,106,VALID,0.864453,
2014-08-24, 09:45:04,VALID,918.3,VALID,0,VALID,67.4367,VALID,190.386,VALID,25.4117,VALID,149,VALID,1.48125,
2014-08-24, 09:46:04,VALID,918.31,VALID,0,VALID,67.2157,VALID,677.739,VALID,25.3941,VALID,141,VALID,1.61328,
2014-08-24, 09:47:04,VALID,918.329,VALID,0,VALID,64.982,VALID,672.367,VALID,25.3336,VALID,141,VALID,1.72539,
2014-08-24, 09:48:04,VALID,918.333,VALID,0,VALID,66.987,VALID,668.499,VALID,25.2945,VALID,133,VALID,1.92773,
2014-08-24, 09:49:04,VALID,918.283,VALID,0,VALID,67.8713,VALID,700.194,VALID,25.3531,VALID,91,VALID,1.42969,
2014-08-24, 09:50:04,VALID,918.3,VALID,0,VALID,67.0937,VALID,634.762,VALID,25.4312,VALID,75,VALID,2.41797,
2014-08-24, 09:51:04,VALID,918.26,VALID,0,VALID,67.0098,VALID,684.937,VALID,25.4527,VALID,42,VALID,2.52422,
2014-08-24, 09:52:04,VALID,918.27,VALID,0,VALID,61.6201,VALID,684.615,VALID,25.4136,VALID,44,VALID,2.41406,
2014-08-24, 09:53:04,VALID,918.254,VALID,0,VALID,67.7722,VALID,516.899,VALID,25.4136,VALID,87,VALID,2.19648,
2014-08-24, 09:54:04,VALID,918.255,VALID,0,VALID,67.1852,VALID,677.094,VALID,25.5503,VALID,55,VALID,1.65781,
2014-08-24, 09:55:04,VALID,918.232,VALID,0,VALID,64.921,VALID,676.127,VALID,25.648,VALID,49,VALID,3.37812,
2014-08-24, 09:56:04,VALID,918.221,VALID,0,VALID,64.8753,VALID,683.111,VALID,25.7046,VALID,37,VALID,1.34492,
2014-08-24, 09:57:04,VALID,918.219,VALID,0,VALID,65.0964,VALID,695.037,VALID,25.7651,VALID,105,VALID,2.87852,
2014-08-24, 09:58:04,VALID,918.185,VALID,0,VALID,64.3035,VALID,540.751,VALID,25.6265,VALID,105,VALID,2.42148,
2014-08-24, 09:59:04,VALID,918.189,VALID,0,VALID,62.9313,VALID,171.798,VALID,25.687,VALID,122,VALID,2.75273,
2014-08-24, 10:00:04,VALID,918.17,VALID,0,VALID,64.1053,VALID,701.913,VALID,25.4722,VALID,151,VALID,1.25781,
2014-08-24, 10:01:04,VALID,918.123,VALID,0,VALID,63.4344,VALID,740.914,VALID,25.4527,VALID,106,VALID,1.98828,
2014-08-24, 10:02:04,VALID,918.135,VALID,0,VALID,65.2869,VALID,728.344,VALID,25.4722,VALID,82,VALID,1.33477,
2014-08-24, 10:03:04,VALID,918.121,VALID,0,VALID,63.3735,VALID,714.591,VALID,25.648,VALID,133,VALID,2.55078,
2014-08-24, 10:04:04,VALID,918.116,VALID,0,VALID,65.8892,VALID,710.723,VALID,25.8628,VALID,50,VALID,2.92734,
2014-08-24, 10:05:04,VALID,918.084,VALID,0,VALID,66.1484,VALID,121.301,VALID,26.0972,VALID,48,VALID,2.12891,
2014-08-24, 10:06:04,VALID,918.111,VALID,0,VALID,61.9936,VALID,337.473,VALID,25.9975,VALID,64,VALID,3.30977,
2014-08-24, 10:07:04,VALID,918.092,VALID,0,VALID,64.8448,VALID,435.674,VALID,25.6265,VALID,71,VALID,1.83672,
2014-08-24, 10:08:04,VALID,918.1,VALID,0,VALID,66.3771,VALID,750.799,VALID,25.5679,VALID,43,VALID,2.01406,
2014-08-24, 10:09:04,VALID,918.127,VALID,0,VALID,65.0277,VALID,735.542,VALID,25.7222,VALID,57,VALID,0.805859,
2014-08-24, 10:10:04,VALID,918.114,VALID,0,VALID,65.0049,VALID,735.327,VALID,25.8608,VALID,106,VALID,1.75117,
2014-08-24, 10:11:04,VALID,918.062,VALID,0,VALID,63.6555,VALID,231.106,VALID,25.8999,VALID,66,VALID,2.85313,
2014-08-24, 10:12:04,VALID,918.065,VALID,0,VALID,63.8995,VALID,196.725,VALID,25.8804,VALID,44,VALID,1.06289,
2014-08-24, 10:13:04,VALID,918.055,VALID,0,VALID,64.2044,VALID,409.673,VALID,25.8999,VALID,72,VALID,1.72812,
2014-08-24, 10:14:04,VALID,918.028,VALID,0,VALID,65.7062,VALID,764.336,VALID,25.8999,VALID,55,VALID,1.33555,
2014-08-24, 10:15:04,VALID,918.002,VALID,0,VALID,63.1752,VALID,177.385,VALID,26.0151,VALID,74,VALID,1.44453,